Back to catalog

TITAN 3C TRANSTAGE DEB

LostHEO
NORAD 36980·DEBRIS·🇺🇸 United States

Launched Dec 21, 1965 from Cape Canaveral Space Force Station

Loading…

Next Passes (next 24 hours)

TLE

StaleSource: Space-Track

Epoch: Jun 22, 2026, 04:51 UTC

1 36980U 65108DL  26173.20244544  .00000004  00000-0  24592-3 0  9999
2 36980  26.7252 193.1510 6761462   5.4412   9.1636  2.70791478 20518

Track TITAN 3C TRANSTAGE DEB in real time with AllMySat

Download on the App Store